#timestamp,LO_Frequency,Hit 
1598248815.0,286047002.6,N
1598248815.9,286047002.6,N
1598248835.8,286047002.2,N
1598248855.6,286047002.3,N
1598248875.4,286047002.1,N
1598248895.3,286047002.7,N
1598248915.1,286047004.0,P
1598248916.0,286047004.0,P
1598248935.8,286046999.8,N
1598248955.7,286047001.0,N
1598248975.5,286047000.1,N
1598248995.3,286047002.7,N
1598249015.2,286047000.4,N
1598249035.9,286047000.4,N
1598249055.7,286047002.7,N
1598249075.6,286047000.2,N
1598249095.4,286047002.1,N
1598249115.2,286046999.8,N
1598249135.1,286046999.8,N
1598249136.0,286046999.8,N
1598249155.8,286047000.4,N
1598249175.6,286047002.3,N
1598249195.5,286047000.0,N
1598249215.3,286047000.5,N
1598249235.1,286047002.4,N
1598249255.9,286046999.8,N
1598249275.7,286047000.2,N
1598249295.5,286047000.0,N
1598249315.4,286047000.2,N
1598249335.2,286047000.3,N
1598249355.0,286046999.7,N
1598249355.9,286046999.7,N
1598249375.8,286047002.4,N
1598249395.6,286047001.9,N
1598249415.4,286047002.5,N
1598249435.3,286047002.3,N
1598249455.1,286047002.0,N
1598249456.0,286047002.0,N
1598249475.8,286047001.6,N
1598249495.7,286047002.5,N
1598249515.5,286047000.1,N
1598249535.3,286047002.3,N
1598249555.2,286047001.5,N
1598249575.9,286047002.2,N
1598249595.7,286047001.6,N
1598249615.6,286047001.4,N
1598249635.4,286047001.4,N
1598249655.2,286046999.8,N
1598249675.1,286046999.7,N
1598249676.0,286046999.7,N
1598249695.8,286047002.8,N
1598249715.6,286047002.7,N
1598249735.5,286047002.1,N
1598249755.3,286046999.7,N
1598249775.1,286046999.7,N
1598249795.9,286046999.7,N
1598249815.7,286046999.7,N
1598249835.5,286047002.8,N
1598249855.4,286047002.7,N
1598249875.2,286047004.0,P
1598249895.1,286047000.7,N
1598249896.0,286047000.7,N
1598249915.8,286047002.8,N
1598249935.6,286047000.0,N
1598249955.5,286047000.9,N
1598249975.3,286047001.1,N
1598249995.1,286046998.1,N
1598250015.9,286047000.5,N
1598250035.7,286047000.4,N
1598250055.5,286047000.3,N
1598250075.4,286047002.7,N
1598250095.2,286047000.2,N
1598250115.0,286047002.6,N
1598250115.9,286047002.6,N
1598250135.8,286047002.7,N
1598250155.6,286047002.8,N
1598250175.4,286047002.8,N
1598250195.3,286047002.5,N
1598250215.1,286047002.6,N
1598250216.0,286047002.6,N
1598250235.8,286046999.9,N
1598250255.7,286047002.4,N
1598250275.5,286047002.5,N
1598250295.3,286046999.9,N
1598250315.2,286047002.7,N
1598250335.9,286047001.9,N
1598250355.7,286047002.6,N
1598250375.6,286047001.6,N
1598250395.4,286047002.6,N
1598250415.2,286047001.9,N
1598250435.1,286047002.8,N
1598250436.0,286047002.8,N
1598250455.8,286047002.5,N
1598250475.6,286047002.8,N
1598250495.5,286047002.2,N
1598250515.3,286047001.4,N
1598250535.1,286047002.5,N
1598250555.9,286047000.1,N
1598250575.7,286047001.7,N
1598250595.5,286047002.1,N
1598250615.4,286047002.7,N
1598250635.2,286047001.7,N
1598250655.0,286047002.6,P
1598250655.9,286047002.6,P
1598250675.8,286047000.8,P
1598250695.6,286046998.3,N
1598250715.4,286046998.2,N
1598250735.3,286047001.0,N
1598250755.1,286046999.7,N
1598250775.8,286047001.1,N
1598250795.7,286046999.9,N
1598250815.5,286046998.1,N
1598250835.3,286047000.2,N
1598250855.2,286046998.5,N
1598250875.0,286047000.5,N
1598250875.9,286047000.5,N
1598250895.7,286047000.8,N
1598250915.6,286046998.6,N
1598250935.4,286047000.5,N
1598250955.2,286047000.9,N
1598250975.1,286046999.7,N
1598250976.0,286046999.7,N
1598250995.8,286047000.0,N
1598251015.6,286047000.5,N
1598251035.5,286047000.4,N
1598251055.3,286047001.2,N
1598251075.1,286047002.7,N
1598251095.9,286047001.0,N
1598251115.7,286047000.3,N
1598251135.5,286047000.2,N
1598251155.4,286046999.9,N
1598251175.2,286047000.5,N
1598251195.0,286047000.7,N
1598251196.0,286047000.7,N
1598251215.8,286047000.7,N
1598251235.6,286047000.7,N
1598251255.4,286047000.8,N
1598251275.3,286047000.7,N
1598251295.1,286047000.3,N
1598251315.9,286047000.0,N
1598251335.7,286047000.1,N
1598251355.5,286047000.8,N
1598251375.3,286047000.9,N
1598251395.2,286047000.6,N
1598251415.0,286047000.4,N
1598251415.9,286047000.4,N
1598251435.8,286047000.2,N
1598251455.6,286047000.6,N
1598251475.4,286047000.2,N
1598251495.3,286047000.6,N
1598251515.1,286046999.7,N
1598251516.0,286046999.7,N
1598251535.8,286047000.6,N
1598251555.7,286047000.2,N
1598251575.5,286047000.4,N
1598251595.3,286046999.9,N
1598251615.2,286047000.9,N
1598251635.9,286047000.2,N
1598251655.7,286047000.8,N
1598251675.6,286047000.0,N
1598251695.4,286046999.9,N
1598251715.2,286047000.3,N
1598251735.1,286047000.6,N
1598251736.0,286047000.6,N
1598251755.8,286047000.3,N
1598251775.6,286047000.2,N
1598251795.5,286047000.5,N
1598251815.3,286047000.8,N
1598251835.1,286046999.9,N
1598251855.9,286047001.1,P
1598251875.7,286047000.9,N
1598251895.5,286047001.2,P
1598251915.4,286046998.5,P
1598251935.2,286046998.4,N
1598251955.1,286046996.5,P
1598251956.0,286046996.5,N
1598251975.8,286046998.3,N
1598251995.6,286046996.9,N
1598252015.5,286046999.4,N
1598252035.3,286046998.9,N
1598252055.1,286046996.7,N
1598252075.9,286046996.9,N
1598252095.7,286046998.7,N
1598252115.5,286046997.2,N
1598252135.3,286046997.0,N
1598252155.2,286046996.8,N
1598252175.0,286046997.4,N
1598252175.9,286046997.4,N
1598252195.8,286046999.2,N
1598252215.6,286046996.7,N
1598252235.4,286046999.5,N
1598252255.2,286046996.8,N
1598252275.1,286046999.3,N
1598252276.0,286046999.3,N
1598252295.8,286046997.2,N
1598252315.7,286046999.2,N
1598252335.5,286046997.6,N
1598252355.3,286046997.1,N
1598252375.2,286046997.2,N
1598252395.9,286046996.7,N
